Bellingham, Washington, United States (98225)
Lat: 48.76N, Lon: 122.49W
Wx Zone: WAZ503
Local Info
Past Weather Observations for Wednesday, September 10, 2014

NOTE: This archive is for the closest National Weather Service station to Bellingham. Information may differ from the station used for current weather conditions.

Click here for Long-term Archive

Time Weather Temperature Dewpoint Humidity Pressure Winds Precip Visibility
23:53
Clear
57°F / 14°C 28°F / -2°C 33% 30.27 in
(1025 mb)
NNE 10.4 mph
(NNE 17 kph)
- 10SM
22:53
Clear
61°F / 16°C 27°F / -3°C 27% 30.27 in
(1025 mb)
NNE 11.5 mph
(NNE 19 kph)
- 10SM
21:53
Clear
59°F / 15°C 28°F / -2°C 31% 30.24 in
(1024 mb)
N 10.4 mph
(N 17 kph)
- 10SM
20:53
Clear
61°F / 16°C 30°F / -1°C 31% 30.24 in
(1024 mb)
N 10.4 mph
(N 17 kph)
- 10SM
19:53
Clear
61°F / 16°C 30°F / -1°C 31% 30.24 in
(1024 mb)
NNE 8.1 mph
(NNE 13 kph)
- 10SM
18:53
Clear
63°F / 17°C 28°F / -2°C 27% 30.21 in
(1023 mb)
N 9.2 mph
(N 15 kph)
- 10SM
17:53
Clear
66°F / 19°C 28°F / -2°C 24% 30.21 in
(1023 mb)
N 9.2 mph
(N 15 kph)
- 10SM
16:53
Clear
70°F / 21°C 28°F / -2°C 21% 30.21 in
(1023 mb)
NE 12.7 mph
(NE 20 kph)
- 10SM
15:53
Clear
70°F / 21°C 28°F / -2°C 21% 30.21 in
(1023 mb)
N 16.1 mph
(N 26 kph)
- 10SM
14:53
Clear
72°F / 22°C 28°F / -2°C 20% 30.21 in
(1023 mb)
NNE 11.5 mph
(NNE 19 kph)
- 10SM
13:53
Clear
70°F / 21°C 27°F / -3°C 20% 30.21 in
(1023 mb)
NE 16.1 mph
(NE 26 kph)
- 10SM
12:53
Clear
70°F / 21°C 27°F / -3°C 20% 30.24 in
(1024 mb)
N 15 mph
(N 24 kph)
- 10SM
11:53
Clear
68°F / 20°C 23°F / -5°C 18% 30.24 in
(1024 mb)
N 23 mph
(N 37 kph)
- 10SM
10:53
Clear
66°F / 19°C 23°F / -5°C 19% 30.24 in
(1024 mb)
NNE 20.7 mph
(NNE 33 kph)
- 10SM
09:53
Clear
64°F / 18°C 27°F / -3°C 24% 30.24 in
(1024 mb)
NNE 23 mph
(NNE 37 kph)
- 10SM
08:53
Clear
63°F / 17°C 32°F / 0°C 32% 30.21 in
(1023 mb)
NE 20.7 mph
(NE 33 kph)
- 10SM
07:53
Clear
61°F / 16°C 36°F / 2°C 39% 30.21 in
(1023 mb)
NNE 16.1 mph
(NNE 26 kph)
- 10SM
06:53
Clear
57°F / 14°C 36°F / 2°C 44% 30.21 in
(1023 mb)
N 12.7 mph
(N 20 kph)
- 10SM
05:53
Partly Cloudy
55°F / 13°C 37°F / 3°C 51% 30.18 in
(1022 mb)
NE 11.5 mph
(NE 19 kph)
- 10SM
04:53
Mostly Cloudy
57°F / 14°C 43°F / 6°C 59% 30.18 in
(1022 mb)
NNE 8.1 mph
(NNE 13 kph)
- 10SM
03:53
Overcast
57°F / 14°C 46°F / 8°C 67% 30.18 in
(1022 mb)
NNE 6.9 mph
(NNE 11 kph)
- 10SM
02:53
Overcast
57°F / 14°C 48°F / 9°C 72% 30.15 in
(1021 mb)
N 3.5 mph
(N 6 kph)
- 10SM
01:53
Mostly Cloudy
54°F / 12°C 52°F / 11°C 94% 30.15 in
(1021 mb)
Calm - 10SM
00:53
Mostly Cloudy
54°F / 12°C 52°F / 11°C 94% 30.15 in
(1021 mb)
Calm - 9SM
Time Weather Temperature Dewpoint Humidity Pressure Winds Precip Visibility


Weather for websites

WeatherForYou.com, LLC is not responsible for any damages or problems caused by this service. Current weather conditions are obtained from the closest station including government and personal stations which may have varying degrees of accuracy. Weather forecasts are derived from the NOAA NDFD. Like all things, this site belongs to Jesus Christ... He just trusts me to maintain it. If you have any questions or comments email webmaster@weatherforyou.com

Copyright © 2014, WeatherForYou.com LLC. All rights reserved.